Showing default

OPS 3151, 9803

Orbit data source: Space-Track

OPS 3151, 9803 is a payload satellite owned by SAMSO (US) in GEO that was launched on Sun, 06 Feb 1977 UTC via a TITAN IIIC launch vehicle from the Air Force Eastern Test Range (AFETR). Payload-class satellites include a variety of spacecraft equipped with specific instruments for various scientific and technological missions. These include communications satellites like Starlink; space stations such as the ISS; scientific satellites like the Hubble; Earth observation satellites from companies like Planet Labs, Umbra, and HawkEye 360; GPS; miniature CubeSats for education and research; and military/defense satellites.

Loading next visibility...
Identifier
9803, 1977-007A
Orbit
GEO
Last TLE update
19 hours ago
Origin
Manufacturer
TRW
Mission
Defense Early Warn
Bus & Motor
DSP P2, MRE-4
Mass
1,040 kg wet, ~980 kg dry
Launch date (UTC)
1977-02-06 (48 years ago)
Launch vehicle
TITAN IIIC
Launch site
Air Force Eastern Test Range (AFETR)
Object type
Payload
Rocket body
Debris
Shape & HBR
Cyl + 4 Pan, Unknown HBR
Radar Cross Section
27.525 m²

Expand to show TLE details & history

TLE from 19 hours ago
0 OPS 3151
1 09803U 77007A   25189.51294566 -.00000080  00000-0  00000-0 0  9993
2 09803   5.6060 287.2997 0078088  30.5861 355.1889  0.97529960 21309
Epoch: 2025-07-08T12:18Z
TLE epoch observation values (Epoch: 2025-07-08T12:18:38.505Z)
Latitude
2.40845°
Longitude
-158.48197°
Altitude
36,237.635 km
Speed
3.07 km/s
True Right ascension
20h 51m 32s
True Declination
2° 24' 22"
Sunlit
Object was in daylight at epoch
Visualization orbit readout
Latitude
-4.64594°
Longitude
120.41301°
Altitude
36,547.006 km
Speed
3.048 km/s
Apparent Right ascension
15h 02m 45s
Apparent Declination
-10° 30' 05"
Sunlit
Object is in daylight
Visualization observer readout
Local Sidereal Time
19:34:21
Azimuth
247.508° W
Elevation
9.603°
Doppler factor
1
Orbital elements
Apogee altitude
36,909.623 km
Perigee altitude
36,238.81 km
Semi-major axis
42,952.353 km
Eccentricity
0.00781
Inclination
5.606°
RAAN
287.2997°
Arg. of periapsis
30.5861°
True anomaly
Unknown
Mean anomaly
355.1889°
Eccentric anomaly
Unknown
Mean motion
0.24382 °/min
Orbital period
1,476.52 mins
BSTAR
0
Loading historical data...
9803 neighbors
Loading maneuver chart data...
Loading SW <> Apogee altitude chart data...
Loading historical data...
Loading historical data...
Loading historical data...
Loading historical data...
Loading historical data...
Loading historical data...
Loading historical data...
Other satellites on launch #7 in the year 1977 (1977-02-06 UTC)

OPS 3151 Visibility forecast

Observer location: undefined°, undefined°

Span
Click to sort rows by Start time (UTC) header in descending order
Start Az.
Max El. time (UTC)
Max El. Az.
Max El.
End time (UTC)
End Az.
833 mins2025-07-09 08:42:51.439Z248.798° W2025-07-09 16:46:51.439Z257.223° W14.452°2025-07-09 22:35:51.439Z255.436° W
|